Terug naar catalogus

SL-12 R/B(2)

ActiefGEO
NORAD 28466·ROCKET BODY·🇷🇺 Russia

Gelanceerd Oct 29, 2004 vanaf Baikonur Cosmodrome

Loading…

TLE

VersSource: Space-Track

Epoch: Sep 14, 2026, 20:57 UTC

1 28466U 04043D   26257.87338052 -.00000002  00000-0  00000-0 0  9998
2 28466  13.3004  15.7871 0008001 170.5016 188.3528  1.00105743 80001

Volg SL-12 R/B(2) in realtime met AllMySat

Download on the App Store